Location: Clatteringshaws Loch
(55.0508°N, 4.2860°W)
Time: 17:03:07
(UTC+00:00)

Daily predictions for brighter satellites

Satellite Brightness Start Highest point End
(mag) Time Altitude Azimuth Time Altitude Azimuth Time Altitude Azimuth
USA 215 3.4 16:59:46 10° ESE 17:06:21 84° SSW 17:12:57 10° WNW
Cosmos 372 Rocket 4.5 17:04:35 10° NNW 17:09:19 36° NE 17:14:01 10° ESE
MOZ.5/SAFIR/RUBIN 5/SL-8 4.3 17:05:26 10° N 17:10:12 64° WNW 17:14:56 10° SSW
Lacrosse 5 rocket 1.1 17:06:49 10° WNW 17:10:30 85° SSW 17:14:21 10° ESE
NOSS 3-2 (A) 3.7 17:05:34 10° SW 17:11:48 80° SE 17:18:46 10° NE
SJ-12 3.9 17:08:08 10° SSE 17:12:16 70° ENE 17:16:24 10° N
Cosmos 2360 Rocket 2.4 17:06:54 10° S 17:12:21 54° ESE 17:17:50 10° NE
Cosmos 1707 3.9 17:09:05 10° SW 17:12:47 43° WNW 17:16:30 10° N
Cosmos 1980 Rocket 3.2 17:07:47 10° WSW 17:13:04 41° NW 17:18:24 10° NNE
Cosmos 2221 3.2 17:10:44 10° NNW 17:14:58 59° W 17:19:09 10° S
NOSS 3-2 (C) 3.7 17:10:06 10° SW 17:16:18 73° SE 17:23:13 10° NE
SL-16 R/B 3.7 17:11:07 10° N 17:16:57 42° WNW 17:22:47 10° SW
AQUARIUS 4.1 17:15:15 10° SSE 17:19:44 73° ENE 17:24:15 10° NNW
CZ-4 R/B 1.3 17:20:03 10° SSE 17:23:57 89° W 17:27:55 10° NNW
USA 161 4.2 17:23:13 10° NNW 17:24:35 13° WNW 17:25:54 10° W
Cosmos 1697 Rocket 4.2 17:20:57 10° W 17:25:51 29° NNW 17:30:45 10° NNE
ATLAS 5 CENTAUR R/B 3.0 17:21:47 10° WNW 17:26:37 36° N 17:31:49 11° ENE
Cosmos 389 Rocket 2.7 17:24:13 10° NNW 17:27:52 76° WSW 17:31:26 10° S
Cosmos 724 4.5 17:22:10 10° SW 17:28:23 83° SE 17:34:40 10° NE
Cosmos 2333 Rocket 3.6 17:25:10 10° SE 17:29:03 19° E 17:32:47 11° ENE
CORIOLIS 4.1 17:23:57 10° SSE 17:29:18 81° ENE 17:34:43 10° NNW
GEOS 3 Rocket 4.2 17:27:06 10° NE 17:32:05 51° NNW 17:37:07 10° WSW
Lacrosse 4 Rocket 2.7 17:28:52 10° NNW 17:32:06 22° NNE 17:34:51 12° ENE
Cosmos 2279 Rocket 4.4 17:27:44 10° N 17:33:30 38° ENE 17:39:15 10° SE
Cosmos 1238 4.3 17:33:19 10° S 17:36:59 72° E 17:40:07 10° NNE
Cosmos 2278 Rocket 2.2 17:32:56 10° NNW 17:38:40 72° NE 17:44:21 10° SE
Cosmos 2219 Rocket 3.2 17:34:36 10° SSE 17:39:17 28° ESE 17:43:32 12° NE
ALOS 3.5 17:36:30 10° E 17:39:51 20° NE 17:43:13 10° N
Cosmos 2322 Rocket 2.8 17:35:01 10° SW 17:40:36 55° NW 17:46:11 10° NNE
Thor Agena Rocket 3.9 17:36:49 10° NNE 17:41:57 47° E 17:46:58 10° S
Cosmos 1125 Rocket 3.4 17:37:46 10° NNW 17:43:01 75° ENE 17:48:13 10° SSE
CENTAUR R/B 3.0 17:38:31 10° SSW 17:44:26 45° ESE 17:50:25 13° NE
Cosmos 1766 Rocket 3.5 17:40:24 10° S 17:44:51 78° E 17:49:19 10° NNE
Cosmos 1943 Rocket 3.8 17:42:09 10° NNW 17:45:41 17° NNE 17:48:35 12° NE
Cosmos 1814 Rocket 4.1 17:41:50 10° SSW 17:47:07 65° ESE 17:52:27 10° NNE
COSMO-SKYMED 1 3.5 17:44:18 10° NNE 17:48:06 28° E 17:51:51 10° SSE
Cosmos 371 Rocket 4.2 17:45:12 10° SSE 17:49:15 28° ESE 17:52:24 14° NE
SPOT 3 Rocket 3.9 17:44:29 10° S 17:49:38 72° WSW 17:54:51 10° NNW
MONITOR-E 4.1 17:46:49 10° SSE 17:49:58 70° ENE 17:53:09 10° N
SJ-6B 3.7 17:46:30 10° ESE 17:50:04 29° ENE 17:53:42 10° N
Cosmos 1844 4.2 17:44:26 10° NW 17:50:10 68° WSW 17:55:54 10° SSE
Resurs 01 Rocket 2.8 17:48:25 10° ESE 17:51:50 22° ENE 17:55:14 10° N
Transit 2A Rocket 4.5 17:51:21 10° NW 17:55:50 86° NE 18:00:08 10° SE
YAOGAN 1 3.1 17:52:00 10° S 17:56:17 63° WSW 18:00:37 10° NNW
Cosmos 2228 Rocket 3.4 17:52:20 10° NNW 17:56:45 72° W 18:01:09 10° S
USA 116 3.1 17:54:54 10° NNE 17:58:18 72° ESE 18:01:26 10° S
SMAP 3.9 17:55:30 10° S 18:00:03 54° W 18:04:39 10° NNW
NOAA 12 4.2 17:55:15 10° SE 18:00:18 50° ENE 18:05:25 10° N
Spot 2 Rocket 4.3 17:57:26 10° ESE 18:01:45 29° ENE 18:06:04 10° N
Cosmos 2058 3.9 17:59:26 10° SE 18:02:47 24° E 18:04:17 20° NE
Cosmos 841 Rocket 3.7 17:59:05 10° S 18:04:13 54° ESE 18:08:55 12° NE
Cosmos 1408 Rocket 3.9 18:00:28 10° SSW 18:04:54 71° WNW 18:09:21 10° N
IDEFIX/ARIANE 42P 3.8 18:02:34 10° S 18:07:34 46° W 18:12:38 10° NNW
Cosmos 44 Rocket 4.3 18:04:04 10° S 18:08:28 30° ESE 18:10:42 21° ENE
Cosmos 2369 Rocket 3.4 18:04:18 10° NNW 18:08:56 24° NNE 18:11:09 20° ENE
COSMOS 2428 2.7 18:03:43 10° SSW 18:09:22 67° ESE 18:14:21 14° NE
Tsikada Rocket 4.2 18:04:12 10° SSW 18:10:37 83° WNW 18:17:06 10° N
Cosmos 2237 Rocket 3.0 18:06:14 10° SSE 18:11:01 30° ESE 18:13:37 21° ENE
Cosmos 1455 3.2 18:08:47 10° N 18:11:44 25° ENE 18:11:44 25° ENE
Timation 1 Rocket 4.3 18:05:54 10° NW 18:11:58 76° NE 18:18:00 10° SE
Cosmos 468 Rocket 4.2 18:07:10 10° SW 18:12:20 73° WNW 18:17:31 10° NNE
Lacrosse 5 1.8 18:07:49 10° WSW 18:12:56 89° N 18:16:06 23° ENE
CZ-3A R/B 3.2 18:07:09 10° WNW 18:13:23 61° SSW 18:18:02 10° SE
Orbus 7S? 3.5 18:10:47 10° WNW 18:13:57 87° SSW 18:19:14 14° ESE
Helios 1A 4.3 18:14:39 21° NE 18:14:39 21° NE 18:17:27 10° N
Cosmos 2237 4.2 18:08:44 10° SSW 18:14:27 82° ESE 18:19:33 14° NE
SL-16 R/B 3.7 18:13:15 10° SE 18:15:50 16° ESE 18:15:50 16° ESE
Cosmos 2297 3.6 18:12:52 10° NNW 18:18:35 72° NE 18:24:18 10° SE
Cosmos 1340 Rocket 3.9 18:15:30 10° SSE 18:18:09 24° ESE 18:18:09 24° ESE
Cosmos 1674 3.0 18:17:04 10° SSW 18:20:52 67° WNW 18:24:45 10° N
CZ-2C R/B 4.2 18:16:27 10° SSW 18:20:58 35° W 18:25:23 10° NNW
Cosmos 1900 4.2 18:18:18 10° NW 18:23:16 82° NE 18:28:15 10° SE
FREGAT/IRIS 2.9 18:22:26 26° SE 18:23:49 45° ENE 18:26:46 10° N
SL-14 R/B 3.5 18:21:44 10° S 18:25:31 48° E 18:27:52 21° NNE
Cosmos 1743 Rocket 3.7 18:23:07 10° SSW 18:27:36 82° W 18:32:08 10° N
Cosmos 1634 Rocket 4.3 18:21:36 10° NNW 18:27:47 70° W 18:33:54 10° S
Cosmos 1726 2.5 18:24:49 10° NNW 18:28:35 66° W 18:32:19 10° S
Cosmos 1484 Rocket 3.8 18:26:22 10° S 18:30:13 50° W 18:34:09 10° NNW
Cosmos 1300 3.1 18:27:19 10° NNW 18:31:09 64° W 18:34:57 10° S
Cosmos 2151 2.9 18:28:26 10° S 18:32:35 58° E 18:35:41 17° NNE
COSMOS 2455 4.1 18:28:00 10° W 18:33:24 32° NNW 18:37:25 16° NE
Cosmos 2084 Rocket 3.9 18:31:35 10° NW 18:35:06 34° NNE 18:35:34 33° NE
Cosmos 2322 4.3 18:29:58 10° SW 18:35:34 57° NW 18:40:29 14° NNE
Cosmos 836 Rocket 4.5 18:30:34 10° S 18:35:44 62° ESE 18:39:08 22° NE
SKYMED 2 3.5 18:32:13 11° NNE 18:36:28 72° ESE 18:40:48 10° S
USA 238 DEB 4.4 18:30:54 10° W 18:37:39 47° NNW 18:41:54 22° NE
USA 238 4.4 18:30:59 10° W 18:37:44 47° NNW 18:42:00 22° NE
CZ-4C R/B 3.3 18:32:43 10° WNW 18:38:33 41° N 18:41:55 25° ENE
Cosmos 1151 Rocket 3.7 18:34:29 10° NNW 18:38:41 55° W 18:42:52 10° S
SL-16 R/B 3.7 18:36:41 10° W 18:41:40 30° NW 18:46:14 12° NNE
Meteor 1-11 4.2 18:37:25 10° S 18:43:00 60° E 18:48:42 10° NNE
Cosmos 1805 Rocket 3.9 18:42:38 10° SSE 18:46:41 42° E 18:46:41 42° E
ATLAS 3B R/B 3.5 18:41:50 10° WNW 18:48:44 42° N 18:52:11 26° NE
Lacrosse 5 rocket 3.1 18:46:13 10° W 18:49:23 26° SW 18:52:41 10° SSE
USA 215 4.4 18:43:45 10° SSE 18:49:53 42° SW 18:56:04 10° WNW
Cosmos 2333 4.2 18:44:24 10° SW 18:50:02 81° NW 18:53:49 22° NNE
NOSS 0 Rocket 4.0 18:44:02 10° SSW 18:50:08 59° ESE 18:53:15 29° NE
Cosmos 1763 Rocket 3.8 18:46:16 10° SW 18:51:27 66° WNW 18:55:26 17° NNE
Aureole 2 Rocket 4.0 18:49:36 10° S 18:51:39 26° SSE 18:51:39 26° SSE
Cosmos 1500 Rocket 4.0 18:50:01 10° SSW 18:54:18 63° WNW 18:58:41 10° N
Meteor 1-28 Rocket 3.0 18:54:51 46° NNE 18:55:52 83° ESE 18:59:36 10° SSW
Cosmos 2360 Rocket 3.2 18:51:15 10° WSW 18:56:34 41° NW 19:00:47 16° NNE
Cosmos 1980 3.7 18:52:43 10° SSW 18:58:19 63° ESE 19:00:32 36° NE
Cosmos 1980 Rocket 4.2 18:54:44 10° WNW 18:58:37 19° NNW 19:01:44 12° NNE
FengYun 1-2 T 4.1 18:53:29 10° SSE 18:59:02 77° ENE 19:04:35 10° NNW
Cosmos 332 Rocket 4.0 18:54:30 10° SW 18:59:21 72° WNW 19:02:17 24° NNE
NOSS 3-2 (A) 4.2 18:56:56 10° W 19:03:13 50° NNW 19:06:50 27° NE
FENGYUN 3A 3.5 18:59:43 10° SSE 19:05:05 79° ENE 19:10:30 10° NNW
NOSS 3-2 (C) 4.2 19:01:21 10° W 19:07:39 52° NNW 19:11:11 28° NE
Spot 1 4.1 19:07:24 60° E 19:07:47 63° ENE 19:12:11 10° NNW
Cosmos 540 Rocket 3.3 19:04:24 10° SSW 19:09:35 79° ESE 19:11:20 43° NE
Lacrosse 4 Rocket 1.2 19:07:21 10° NW 19:11:13 74° N 19:11:13 74° N
ATLAS 5 CENTAUR R/B 2.7 19:07:15 10° NW 19:12:29 42° NNE 19:13:23 40° NE
Cosmos 2333 Rocket 2.1 19:06:53 10° SSW 19:12:33 85° ESE 19:14:49 38° NE
SL-19 R/B 4.5 19:09:07 10° SSE 19:14:57 74° WSW 19:20:34 10° NNW
ALOS 2.2 19:12:05 10° SSE 19:16:46 83° WSW 19:21:30 10° NNW
Cosmos 44 3.4 19:13:14 10° SSW 19:18:15 59° SE 19:18:15 59° SE
Cosmos 2084 3.9 19:14:42 10° SW 19:17:29 43° SSW 19:17:29 43° SSW
Cosmos 783 Rocket 4.4 19:14:25 10° SSW 19:19:44 75° ESE 19:20:46 57° NE
Cosmos 2278 Rocket 4.2 19:17:36 10° NW 19:22:18 27° WSW 19:27:00 10° SSW
Cosmos 2219 Rocket 2.3 19:17:10 10° SW 19:22:48 71° NW 19:25:17 34° NNE
COSMO-SKYMED 1 3.6 19:20:47 13° N 19:24:26 45° WNW 19:28:35 10° SW
SJ-6B 4.2 19:20:45 10° S 19:24:38 41° W 19:28:36 10° NNW
Cosmos 2322 Rocket 4.1 19:21:36 10° WNW 19:25:55 22° NNW 19:28:50 15° NNE
Cosmos 1707 Rocket 4.3 19:23:37 10° NNW 19:27:52 52° W 19:32:04 10° S
Resurs 01 Rocket 1.8 19:24:56 20° S 19:27:55 69° WSW 19:32:24 10° NNW
Cosmos 371 Rocket 3.8 19:24:40 10° SW 19:29:24 56° WNW 19:31:07 36° N
Cosmos 1943 Rocket 3.2 19:26:07 10° NNW 19:30:07 32° NNE 19:30:07 32° NNE
CENTAUR R/B 2.9 19:28:25 10° WSW 19:34:55 69° NNW 19:37:37 40° NE
Resurs 1-3 3.9 19:37:56 63° SW 19:38:16 66° WSW 19:42:40 10° NNW
Cosmos 2058 4.0 19:35:36 10° SW 19:39:32 44° WNW 19:40:35 35° NNW
Spot 2 Rocket 4.0 19:35:29 10° S 19:40:28 59° WSW 19:45:28 10° NNW
Cosmos 1867 3.9 19:40:37 10° NW 19:45:20 54° N 19:45:20 54° N
Nadezhda 4 Rocket 3.9 19:41:06 10° S 19:47:23 88° WNW 19:53:46 10° N
Cosmos 1455 3.8 19:44:16 10° NNW 19:46:50 32° WNW 19:46:50 32° WNW
DNEPR-1 R/B 4.1 19:42:01 10° SW 19:48:21 82° NW 19:48:36 79° N
Helios 1A 4.4 19:51:18 32° NNW 19:51:18 32° NNW 19:53:41 10° NNW
Cosmos 44 Rocket 3.5 19:44:38 10° SW 19:49:26 69° WNW 19:49:26 69° WNW
Cosmos 2369 Rocket 2.5 19:48:18 10° NNW 19:52:58 56° N 19:52:58 56° N
COSMOS 2428 4.0 19:48:50 10° WSW 19:54:05 36° NW 19:56:23 26° N
Cosmos 2237 Rocket 2.4 19:49:06 10° SW 19:54:43 67° NW 19:55:29 60° N
Cosmos 1340 Rocket 4.4 19:51:20 10° SW 19:53:52 31° WSW 19:53:52 31° WSW
Lacrosse 5 2.3 19:51:04 10° W 19:55:19 58° NW 19:55:19 58° NW
SL-16 R/B 3.0 19:54:13 10° SSW 19:57:46 40° SSW 19:57:46 40° SSW
Cosmos 1092 Rocket 3.9 19:59:09 10° S 20:10:37 17° N 20:11:55 10° N
COSMOS 2455 4.3 20:16:00 10° NW 20:20:33 26° N 20:20:33 26° N
SL-16 R/B 4.3 20:24:04 10° NW 20:27:40 17° N 20:28:07 17° N
CZ-4C R/B 3.1 20:21:42 10° NW 20:27:07 55° N 20:27:07 55° N
USA 238 DEB 4.4 20:23:11 10° WNW 20:29:21 45° N 20:29:21 45° N
USA 238 4.4 20:23:16 10° WNW 20:29:27 45° N 20:29:27 45° N
ATLAS 3B R/B 3.4 20:33:47 10° NW 20:39:26 47° NNW 20:39:26 47° NNW
Cosmos 2360 Rocket 4.3 20:38:13 10° WNW 20:42:07 19° NNW 20:42:34 18° NNW
Cosmos 1980 Rocket 4.4 20:41:23 10° NNW 20:43:30 15° N 20:43:30 15° N
Lacrosse 4 Rocket 4.4 20:46:54 10° WNW 20:47:36 13° WNW 20:47:36 13° WNW
Cosmos 2333 Rocket 3.8 20:52:32 10° W 20:56:51 30° NW 20:56:51 30° NW
ATLAS 5 CENTAUR R/B 3.7 20:52:02 10° NW 20:54:56 32° NW 20:54:56 32° NW
Cosmos 2219 Rocket 4.1 21:03:09 10° W 21:07:02 24° NW 21:07:02 24° NW
Cosmos 1943 Rocket 4.3 21:09:50 10° NW 21:11:39 21° NW 21:11:39 21° NW
CENTAUR R/B 3.9 21:20:08 10° WNW 21:24:49 37° NW 21:24:49 37° NW
